Weather History for KCSV - December, 2012

Change the Weather History Date:

Friday, December 7, 2012

  Actual Average Record
Temperature  
Mean Temperature 55 °F 40 °F  
Max Temperature 60 °F 49 °F 71 °F (1998)
Min Temperature 49 °F 32 °F 3 °F (1977)
Degree Days  
Heating Degree Days 10    
Month to date heating degree days 73  
Since 1 July heating degree days 1038  
Cooling Degree Days 0    
Month to date cooling degree days 0  
Year to date cooling degree days 1156  
Growing Degree Days 4 (Base 50)    
Moisture  
Dew Point 47 °F    
Average Humidity 77    
Maximum Humidity 86    
Minimum Humidity 67    
Precipitation  
Precipitation 0.00 in 0.17 in 2.37 in (1957)
Month to date precipitation 0.05 1.23  
Year to date precipitation 41.82 51.37  
Sea Level Pressure  
Sea Level Pressure 30.01 in    
Wind  
Wind Speed 6 mph (South)    
Max Wind Speed 13 mph    
Max Gust Speed 22 mph    
Visibility 10 miles    
Events      
T = Trace of Precipitation, MM = Missing Value Source: NWS Daily Summary

Daily Weather History Graph

Daily Weather History Graph

Search for Another Location

Airport or City:

Trip Planner

Search our weather history database for the weather conditions in past years. The results will help you decide how hot, cold, wet, or windy it might be!

Date:

Astronomy

Dec. 07, 2012 Rise Set
Actual Time 6:37 AM CST 4:26 PM CST
Civil Twilight 6:09 AM CST 4:54 PM CST
Nautical Twilight 5:37 AM CST 5:26 PM CST
Astronomical Twilight 5:06 AM CST 5:57 PM CST
Moon 12:06 AM CST (12/7) 12:13 PM CST (12/7)
Length of Visible Light 10h 44m
Length of Day
9h 48m
Last Quarter, 38% of the Moon is Illuminated
Dec 7
Last Quarter
Dec 13
New
Dec 19
First Quarter
Dec 28
Full
Jan 4
Last Quarter

Hourly Weather History & Observations

Time (CST) Temp. Dew Point Humidity Pressure Visibility Wind Dir Wind Speed Gust Speed Precip Events Conditions
12:53 AM 48.9 °F 42.1 °F 77% 30.05 in 10.0 mi South 6.9 mph - N/A   Mostly Cloudy
1:04 AM 50.0 °F 42.8 °F 76% 30.06 in 10.0 mi South 5.8 mph - N/A   Mostly Cloudy
1:53 AM 51.1 °F 45.0 °F 80% 30.05 in 10.0 mi South 6.9 mph 17.3 mph N/A   Overcast
2:18 AM 51.8 °F 44.6 °F 76% 30.06 in 10.0 mi South 10.4 mph - N/A   Mostly Cloudy
2:53 AM 51.1 °F 45.0 °F 80% 30.04 in 10.0 mi South 6.9 mph - N/A   Overcast
3:17 AM 51.8 °F 44.6 °F 76% 30.05 in 10.0 mi South 9.2 mph - N/A   Overcast
3:42 AM 51.8 °F 44.6 °F 76% 30.05 in 10.0 mi South 10.4 mph 17.3 mph N/A   Mostly Cloudy
3:53 AM 51.1 °F 45.0 °F 80% 30.04 in 10.0 mi South 9.2 mph - N/A   Mostly Cloudy
4:53 AM 50.0 °F 45.0 °F 83% 30.03 in 10.0 mi Variable 6.9 mph - N/A   Overcast
5:41 AM 50.0 °F 44.6 °F 82% 30.05 in 10.0 mi South 10.4 mph 16.1 mph N/A   Overcast
5:53 AM 50.0 °F 45.0 °F 83% 30.04 in 10.0 mi South 6.9 mph - N/A   Overcast
6:26 AM 50.0 °F 46.4 °F 87% 30.06 in 10.0 mi South 10.4 mph 19.6 mph N/A   Overcast
6:53 AM 50.0 °F 46.0 °F 86% 30.05 in 9.0 mi South 10.4 mph 18.4 mph N/A   Overcast
7:53 AM 51.1 °F 46.9 °F 86% 30.05 in 8.0 mi Variable 6.9 mph - N/A   Overcast
8:53 AM 53.1 °F 48.0 °F 83% 30.06 in 9.0 mi South 6.9 mph - N/A   Overcast
9:51 AM 53.6 °F 48.2 °F 82% 30.06 in 10.0 mi South 5.8 mph 19.6 mph N/A   Mostly Cloudy
9:53 AM 55.0 °F 48.0 °F 77% 30.05 in 10.0 mi South 8.1 mph 19.6 mph N/A   Mostly Cloudy
10:13 AM 55.4 °F 48.2 °F 77% 30.05 in 10.0 mi South 8.1 mph - N/A   Mostly Cloudy
10:53 AM 55.9 °F 48.0 °F 75% 30.02 in 10.0 mi SSE 8.1 mph - N/A   Clear
11:53 AM 57.9 °F 48.9 °F 72% 29.99 in 10.0 mi South 8.1 mph - N/A   Clear
1:53 PM 59.0 °F 48.0 °F 67% 29.94 in 10.0 mi South 9.2 mph - N/A   Overcast
2:53 PM 57.9 °F 48.0 °F 70% 29.94 in 10.0 mi South 8.1 mph - N/A   Overcast
3:53 PM 57.9 °F 48.0 °F 70% 29.94 in 10.0 mi Variable 5.8 mph - N/A   Overcast
4:53 PM 55.9 °F 48.9 °F 77% 29.94 in 10.0 mi Calm Calm - N/A   Overcast
5:53 PM 54.0 °F 48.9 °F 83% 29.95 in 10.0 mi South 3.5 mph - N/A   Overcast
7:03 PM 53.6 °F 48.2 °F 82% 29.97 in 10.0 mi South 3.5 mph - N/A   Mostly Cloudy
8:53 PM 55.9 °F 48.9 °F 77% 29.97 in 10.0 mi South 3.5 mph - N/A   Overcast
9:18 PM 55.4 °F 48.2 °F 77% 29.99 in 10.0 mi South 5.8 mph - N/A   Overcast
9:53 PM 55.0 °F 48.9 °F 80% 29.97 in 10.0 mi South 5.8 mph - N/A   Overcast
10:31 PM 55.4 °F 48.2 °F 77% 29.99 in 10.0 mi South 5.8 mph - N/A   Overcast
10:53 PM 55.9 °F 48.9 °F 77% 29.97 in 10.0 mi South 5.8 mph - N/A   Overcast
11:09 PM 55.4 °F 48.2 °F 77% 29.99 in 10.0 mi Calm Calm - N/A   Mostly Cloudy
11:27 PM 55.4 °F 48.2 °F 77% 29.98 in 10.0 mi South 3.5 mph - N/A   Mostly Cloudy
11:38 PM 55.4 °F 48.2 °F 77% 29.99 in 10.0 mi Variable 3.5 mph - N/A   Overcast
11:50 PM 55.4 °F 48.2 °F 77% 29.98 in 10.0 mi South 5.8 mph - N/A   Overcast
11:53 PM 55.9 °F 48.9 °F 77% 29.96 in 10.0 mi South 5.8 mph - N/A   Overcast